TCISK LTAJ-LIPZ

Flight info

Callsign TCISK
Flight time 3h 4m
Altitude 43000
Route POGEN1M/28 POGEN UA17 ERHAN/N0474F470 UA17 YAVRU UA4 ERKAL UL615 VADEN Y520 LUKOV Q8 DOLAP DCT NANER DCT UZVEZ DCT KOREX DCT LABIN DCT BASOG
Aircraft C750/M-SBDE3FGHRWXY/S

Departure

Time 2026-05-06 13:31
Airport Gaziantep Oğuzeli International Airport (LTAJ)

Arrival

Time 2026-05-06 16:35
Airport Venice Marco Polo Airport (LIPZ)
Time Latitude Longitude Altitude Speed Heading
2026-05-06 13:10 36.94570 37.47612 2285 ft 0 kts 195°
2026-05-06 13:21 36.94569 37.47611 2285 ft 0 kts 208°
2026-05-06 13:21 36.94562 37.47602 2285 ft 5 kts 234°
2026-05-06 13:22 36.94577 37.47558 2285 ft 7 kts 329°
2026-05-06 13:22 36.94640 37.47538 2288 ft 10 kts 360°
2026-05-06 13:22 36.94691 37.47575 2284 ft 7 kts 79°
2026-05-06 13:22 36.94679 37.47644 2284 ft 10 kts 104°
2026-05-06 13:23 36.94660 37.47735 2284 ft 12 kts 104°
2026-05-06 13:23 36.94635 37.47841 2284 ft 13 kts 106°
2026-05-06 13:23 36.94610 37.47960 2284 ft 15 kts 103°
2026-05-06 13:23 36.94581 37.48095 2283 ft 17 kts 105°
2026-05-06 13:24 36.94550 37.48237 2284 ft 15 kts 104°
2026-05-06 13:24 36.94526 37.48353 2283 ft 12 kts 104°
2026-05-06 13:24 36.94508 37.48439 2284 ft 9 kts 104°
2026-05-06 13:24 36.94494 37.48500 2283 ft 6 kts 106°
2026-05-06 13:25 36.94478 37.48572 2284 ft 12 kts 105°
2026-05-06 13:25 36.94453 37.48686 2284 ft 15 kts 105°
2026-05-06 13:25 36.94423 37.48825 2283 ft 17 kts 105°
2026-05-06 13:25 36.94409 37.48928 2283 ft 6 kts 60°
2026-05-06 13:26 36.94446 37.48948 2282 ft 4 kts 351°
2026-05-06 13:26 36.94463 37.48940 2281 ft 3 kts 340°
2026-05-06 13:26 36.94467 37.48934 2281 ft 1 kts 312°
2026-05-06 13:26 36.94472 37.48926 2281 ft 2 kts 312°
2026-05-06 13:27 36.94478 37.48918 2280 ft 2 kts 312°
2026-05-06 13:27 36.94485 37.48909 2280 ft 4 kts 315°
2026-05-06 13:27 36.94531 37.48851 2277 ft 15 kts 316°
2026-05-06 13:27 36.94610 37.48752 2275 ft 12 kts 305°
2026-05-06 13:28 36.94622 37.48709 2276 ft 2 kts 283°
2026-05-06 13:28 36.94624 37.48700 2276 ft 0 kts 283°
2026-05-06 13:30 36.94643 37.48608 2277 ft 42 kts 286°
2026-05-06 13:30 36.94817 37.47801 2277 ft 143 kts 285°
2026-05-06 13:31 36.95089 37.46527 2839 ft 146 kts 285°
2026-05-06 13:31 36.95326 37.45309 3594 ft 148 kts 281°
2026-05-06 13:31 36.95562 37.43997 4112 ft 165 kts 279°
2026-05-06 13:31 36.95835 37.42480 4468 ft 195 kts 280°
2026-05-06 13:32 36.96148 37.40713 4981 ft 219 kts 279°
2026-05-06 13:32 36.96494 37.38758 5537 ft 242 kts 281°
2026-05-06 13:32 36.96899 37.36618 6119 ft 261 kts 282°
2026-05-06 13:32 36.97326 37.34407 7123 ft 262 kts 282°
2026-05-06 13:33 36.97750 37.32171 8075 ft 269 kts 282°
2026-05-06 13:33 36.98174 37.29919 9098 ft 259 kts 282°
2026-05-06 13:33 36.98599 37.27661 9043 ft 276 kts 282°
2026-05-06 13:33 36.99038 37.25343 8987 ft 270 kts 281°
2026-05-06 13:34 36.99471 37.23054 8997 ft 273 kts 282°
2026-05-06 13:34 36.99914 37.20693 9021 ft 283 kts 282°
2026-05-06 13:34 37.00360 37.18324 10178 ft 272 kts 282°
2026-05-06 13:34 37.00803 37.15968 10761 ft 289 kts 282°
2026-05-06 13:35 37.01584 37.13530 10758 ft 321 kts 303°
2026-05-06 13:35 37.03301 37.11561 10912 ft 345 kts 323°
2026-05-06 13:35 37.05339 37.09960 11673 ft 346 kts 327°
2026-05-06 13:35 37.07383 37.08349 12417 ft 347 kts 323°
2026-05-06 13:36 37.09342 37.06554 13095 ft 350 kts 320°
2026-05-06 13:36 37.11294 37.04682 13700 ft 355 kts 321°
2026-05-06 13:36 37.13315 37.02869 14349 ft 357 kts 323°
2026-05-06 13:36 37.15337 37.01102 14958 ft 360 kts 323°
2026-05-06 13:37 37.17385 36.99257 15544 ft 363 kts 322°
2026-05-06 13:37 37.19427 36.97385 16198 ft 365 kts 322°
2026-05-06 13:37 37.21498 36.95510 16829 ft 368 kts 322°
2026-05-06 13:37 37.23520 36.93523 17384 ft 370 kts 313°
2026-05-06 13:38 37.25043 36.90930 18070 ft 368 kts 300°
2026-05-06 13:38 37.26310 36.88125 18721 ft 370 kts 297°
2026-05-06 13:38 37.27512 36.85258 19346 ft 372 kts 296°
2026-05-06 13:38 37.28682 36.82396 19989 ft 373 kts 296°
2026-05-06 13:39 37.29866 36.79476 20640 ft 375 kts 296°
2026-05-06 13:39 37.31053 36.76532 21267 ft 378 kts 296°
2026-05-06 13:39 37.32242 36.73566 21901 ft 381 kts 296°
2026-05-06 13:39 37.33431 36.70579 22538 ft 383 kts 296°
2026-05-06 13:40 37.34640 36.67625 23083 ft 386 kts 300°
2026-05-06 13:40 37.36459 36.65116 23593 ft 391 kts 316°
2026-05-06 13:40 37.38518 36.62871 24129 ft 393 kts 316°
2026-05-06 13:40 37.40507 36.60486 24560 ft 396 kts 313°
2026-05-06 13:41 37.42456 36.58020 25058 ft 398 kts 313°
2026-05-06 13:41 37.44464 36.55581 25545 ft 402 kts 314°
2026-05-06 13:41 37.46486 36.53214 26179 ft 401 kts 314°
2026-05-06 13:41 37.48524 36.50781 26679 ft 404 kts 314°
2026-05-06 13:42 37.50548 36.48302 27198 ft 407 kts 313°
2026-05-06 13:42 37.52586 36.45825 27773 ft 409 kts 314°
2026-05-06 13:42 37.54658 36.43338 28252 ft 412 kts 314°
2026-05-06 13:42 37.56744 36.40828 28739 ft 416 kts 314°
2026-05-06 13:43 37.58838 36.38288 29245 ft 419 kts 314°
2026-05-06 13:43 37.60921 36.35756 29746 ft 422 kts 314°
2026-05-06 13:43 37.63051 36.33177 30225 ft 425 kts 314°
2026-05-06 13:43 37.65196 36.30581 30623 ft 428 kts 314°
2026-05-06 13:44 37.67358 36.27955 30991 ft 432 kts 313°
2026-05-06 13:44 37.69527 36.25318 31520 ft 430 kts 313°
2026-05-06 13:44 37.71677 36.22702 32148 ft 428 kts 313°
2026-05-06 13:44 37.73099 36.20974 32537 ft 427 kts 313°
2026-05-06 13:45 37.75239 36.18367 33079 ft 427 kts 313°
2026-05-06 13:45 37.79509 36.13158 34265 ft 425 kts 313°
2026-05-06 13:45 37.81630 36.10570 34753 ft 424 kts 313°
2026-05-06 13:46 37.83763 36.07961 35091 ft 427 kts 313°
2026-05-06 13:46 37.85905 36.05340 35503 ft 428 kts 313°
2026-05-06 13:46 37.88044 36.02721 35923 ft 428 kts 313°
2026-05-06 13:46 37.90200 36.00082 36070 ft 436 kts 313°
2026-05-06 13:47 37.94561 35.94730 36067 ft 441 kts 313°
2026-05-06 13:47 37.98977 35.89306 36061 ft 442 kts 313°
2026-05-06 13:48 38.01172 35.86606 36192 ft 436 kts 313°
2026-05-06 13:48 38.03344 35.83930 36705 ft 433 kts 313°
2026-05-06 13:48 38.05502 35.81268 37178 ft 433 kts 313°
2026-05-06 13:48 38.07668 35.78595 37586 ft 435 kts 313°
2026-05-06 13:49 38.09847 35.75905 38060 ft 436 kts 313°
2026-05-06 13:49 38.11999 35.73245 38588 ft 436 kts 313°
2026-05-06 13:49 38.14172 35.70557 39023 ft 436 kts 313°
2026-05-06 13:49 38.16356 35.67854 39393 ft 437 kts 313°
2026-05-06 13:50 38.18536 35.65152 39783 ft 437 kts 313°
2026-05-06 13:50 38.20719 35.62444 40133 ft 438 kts 313°
2026-05-06 13:50 38.22908 35.59727 40482 ft 439 kts 313°
2026-05-06 13:50 38.25068 35.57044 40833 ft 439 kts 313°
2026-05-06 13:51 38.27258 35.54319 41193 ft 440 kts 313°
2026-05-06 13:51 38.29448 35.51594 41584 ft 440 kts 313°
2026-05-06 13:51 38.31644 35.48857 41929 ft 441 kts 313°
2026-05-06 13:51 38.33838 35.46121 42284 ft 441 kts 313°
2026-05-06 13:52 38.36039 35.43376 42627 ft 442 kts 313°
2026-05-06 13:52 38.38230 35.40640 42975 ft 435 kts 313°
2026-05-06 13:52 38.42548 35.35234 43061 ft 445 kts 313°
2026-05-06 13:53 38.47019 35.29633 43084 ft 454 kts 313°
2026-05-06 13:53 38.51540 35.23960 43098 ft 455 kts 313°
2026-05-06 13:54 38.55670 35.17947 43085 ft 452 kts 308°
2026-05-06 13:54 38.59744 35.11786 43091 ft 453 kts 308°
2026-05-06 13:55 38.63807 35.05647 43647 ft 444 kts 308°
2026-05-06 13:55 38.65785 35.02642 44101 ft 441 kts 308°
2026-05-06 13:55 38.67763 34.99641 44418 ft 441 kts 308°
2026-05-06 13:56 38.69719 34.96675 44742 ft 441 kts 308°
2026-05-06 13:56 38.71697 34.93669 45025 ft 442 kts 308°
2026-05-06 13:56 38.73678 34.90653 45302 ft 442 kts 308°
2026-05-06 13:56 38.75663 34.87629 45573 ft 441 kts 308°
2026-05-06 13:57 38.77648 34.84605 45831 ft 441 kts 308°
2026-05-06 13:57 38.79598 34.81631 46080 ft 441 kts 308°
2026-05-06 13:57 38.81570 34.78619 46317 ft 441 kts 308°
2026-05-06 13:57 38.83546 34.75598 46546 ft 441 kts 308°
2026-05-06 13:58 38.85522 34.72576 46764 ft 442 kts 308°
2026-05-06 13:58 38.87506 34.69538 46907 ft 444 kts 308°
2026-05-06 13:58 38.89481 34.66511 47087 ft 437 kts 308°
2026-05-06 13:58 38.91442 34.63503 47096 ft 441 kts 308°
2026-05-06 13:59 38.95396 34.57423 47105 ft 450 kts 308°
2026-05-06 13:59 38.99438 34.51204 47112 ft 455 kts 308°
2026-05-06 14:00 39.03488 34.44956 47112 ft 454 kts 308°
2026-05-06 14:00 39.07533 34.38706 47105 ft 454 kts 308°
2026-05-06 14:01 39.11449 34.32323 47082 ft 453 kts 300°
2026-05-06 14:01 39.15010 34.25634 47106 ft 454 kts 308°
2026-05-06 14:02 39.19078 34.19456 47100 ft 454 kts 308°
2026-05-06 14:02 39.23117 34.13183 47106 ft 454 kts 308°
2026-05-06 14:03 39.27185 34.06927 47098 ft 456 kts 308°
2026-05-06 14:03 39.31219 34.00671 47095 ft 455 kts 308°
2026-05-06 14:04 39.35282 33.94378 47101 ft 455 kts 308°
2026-05-06 14:04 39.39332 33.88084 47092 ft 455 kts 308°
2026-05-06 14:05 39.43357 33.81819 47096 ft 455 kts 308°
2026-05-06 14:05 39.47392 33.75503 47095 ft 455 kts 307°
2026-05-06 14:06 39.51330 33.69086 47099 ft 455 kts 307°
2026-05-06 14:06 39.55307 33.62714 47095 ft 454 kts 307°
2026-05-06 14:07 39.59292 33.56369 47088 ft 454 kts 308°
2026-05-06 14:07 39.63314 33.50050 47095 ft 454 kts 308°
2026-05-06 14:08 39.67334 33.43770 47088 ft 454 kts 308°
2026-05-06 14:08 39.71364 33.37446 47086 ft 454 kts 308°
2026-05-06 14:09 39.75390 33.31118 47083 ft 454 kts 308°
2026-05-06 14:09 39.79416 33.24781 47082 ft 454 kts 308°
2026-05-06 14:10 39.83413 33.18471 47085 ft 454 kts 308°
2026-05-06 14:10 39.87431 33.12121 47073 ft 454 kts 308°
2026-05-06 14:11 39.91451 33.05750 47076 ft 454 kts 308°
2026-05-06 14:11 39.95439 32.99419 47076 ft 454 kts 308°
2026-05-06 14:12 39.99449 32.93040 47080 ft 454 kts 308°
2026-05-06 14:12 40.03437 32.86683 47072 ft 456 kts 308°
2026-05-06 14:13 40.07420 32.80227 47058 ft 455 kts 304°
2026-05-06 14:13 40.11018 32.73432 47070 ft 454 kts 303°
2026-05-06 14:14 40.14631 32.66647 47066 ft 455 kts 304°
2026-05-06 14:14 40.18211 32.59890 47064 ft 454 kts 303°
2026-05-06 14:15 40.21813 32.53075 47066 ft 454 kts 304°
2026-05-06 14:15 40.25410 32.46263 47066 ft 454 kts 303°
2026-05-06 14:16 40.29002 32.39438 47062 ft 455 kts 304°
2026-05-06 14:16 40.32570 32.32650 47059 ft 455 kts 304°
2026-05-06 14:17 40.36156 32.25807 47067 ft 455 kts 303°
2026-05-06 14:17 40.39741 32.18955 47069 ft 454 kts 304°
2026-05-06 14:18 40.43283 32.12167 47072 ft 453 kts 304°
2026-05-06 14:18 40.46839 32.05308 47074 ft 453 kts 303°
2026-05-06 14:19 40.50401 31.98435 47073 ft 456 kts 303°
2026-05-06 14:19 40.53937 31.91593 47080 ft 454 kts 304°
2026-05-06 14:20 40.57452 31.84675 47064 ft 455 kts 300°
2026-05-06 14:20 40.59807 31.76981 47085 ft 454 kts 288°
2026-05-06 14:21 40.61740 31.69056 47078 ft 455 kts 289°
2026-05-06 14:21 40.63720 31.61135 47083 ft 455 kts 288°
2026-05-06 14:22 40.65647 31.53243 47083 ft 455 kts 288°
2026-05-06 14:22 40.67607 31.45297 47088 ft 455 kts 288°
2026-05-06 14:23 40.69546 31.37345 47084 ft 454 kts 288°
2026-05-06 14:23 40.71470 31.29462 47083 ft 454 kts 288°
2026-05-06 14:24 40.73399 31.21515 47091 ft 454 kts 288°
2026-05-06 14:24 40.75323 31.13569 47091 ft 454 kts 288°
2026-05-06 14:25 40.77227 31.05674 47080 ft 453 kts 288°
2026-05-06 14:25 40.79134 30.97747 47076 ft 453 kts 288°
2026-05-06 14:26 40.81034 30.89814 47086 ft 453 kts 288°
2026-05-06 14:26 40.82930 30.81877 47086 ft 453 kts 288°
2026-05-06 14:27 40.84820 30.73935 47079 ft 453 kts 288°
2026-05-06 14:27 40.86678 30.65969 47070 ft 453 kts 285°
2026-05-06 14:28 40.88125 30.57850 47090 ft 454 kts 284°
2026-05-06 14:28 40.89580 30.49734 47086 ft 453 kts 284°
2026-05-06 14:29 40.91025 30.41609 47080 ft 454 kts 284°
2026-05-06 14:29 40.92456 30.33521 47083 ft 454 kts 284°
2026-05-06 14:30 40.93888 30.25399 47080 ft 453 kts 284°
2026-05-06 14:30 40.95316 30.17250 47075 ft 454 kts 284°
2026-05-06 14:31 40.96731 30.09151 47081 ft 453 kts 284°
2026-05-06 14:31 40.97908 30.02375 47080 ft 454 kts 284°
2026-05-06 14:32 40.99317 29.94223 47076 ft 454 kts 284°
2026-05-06 14:32 41.00698 29.86045 47064 ft 453 kts 284°
2026-05-06 14:33 41.02076 29.77928 47071 ft 454 kts 284°
2026-05-06 14:33 41.03451 29.69757 47064 ft 454 kts 283°
2026-05-06 14:34 41.04820 29.61597 47070 ft 454 kts 283°
2026-05-06 14:34 41.06190 29.53472 47070 ft 453 kts 284°
2026-05-06 14:35 41.07557 29.45311 47067 ft 453 kts 283°
2026-05-06 14:35 41.08918 29.37150 47069 ft 453 kts 283°
2026-05-06 14:36 41.10274 29.28985 47072 ft 453 kts 283°
2026-05-06 14:36 41.11623 29.20822 47067 ft 451 kts 283°
2026-05-06 14:37 41.13513 29.12974 47055 ft 450 kts 297°
2026-05-06 14:37 41.16877 29.05977 47084 ft 449 kts 304°
2026-05-06 14:38 41.20316 28.99090 47089 ft 449 kts 303°
2026-05-06 14:38 41.23776 28.92165 47078 ft 449 kts 304°
2026-05-06 14:39 41.27231 28.85235 47079 ft 450 kts 303°
2026-05-06 14:39 41.30683 28.78289 47079 ft 449 kts 303°
2026-05-06 14:40 41.34109 28.71386 47072 ft 450 kts 303°
2026-05-06 14:40 41.37555 28.64421 47078 ft 450 kts 303°
2026-05-06 14:41 41.40994 28.57459 47077 ft 450 kts 303°
2026-05-06 14:41 41.44430 28.50484 47076 ft 450 kts 303°
2026-05-06 14:42 41.47864 28.43498 47077 ft 449 kts 303°
2026-05-06 14:42 41.51274 28.36546 47084 ft 449 kts 303°
2026-05-06 14:43 41.54701 28.29549 47082 ft 449 kts 303°
2026-05-06 14:43 41.58104 28.22582 47083 ft 451 kts 303°
2026-05-06 14:44 41.61526 28.15560 47077 ft 450 kts 303°
2026-05-06 14:45 41.66652 28.05013 47085 ft 450 kts 303°
2026-05-06 14:45 41.70059 27.97981 47081 ft 450 kts 303°
2026-05-06 14:46 41.73439 27.90988 47078 ft 450 kts 303°
2026-05-06 14:46 41.76839 27.83939 47077 ft 450 kts 303°
2026-05-06 14:47 41.80236 27.76880 47070 ft 450 kts 303°
2026-05-06 14:47 41.83608 27.69856 47059 ft 449 kts 303°
2026-05-06 14:48 41.86979 27.62817 47070 ft 449 kts 303°
2026-05-06 14:48 41.90362 27.55738 47062 ft 449 kts 303°
2026-05-06 14:49 41.93735 27.48663 47048 ft 449 kts 303°
2026-05-06 14:49 41.97069 27.41652 47051 ft 447 kts 303°
2026-05-06 14:50 42.00431 27.34565 47056 ft 450 kts 303°
2026-05-06 14:50 42.03793 27.27464 47044 ft 449 kts 303°
2026-05-06 14:51 42.07057 27.20284 47012 ft 450 kts 297°
2026-05-06 14:51 42.09751 27.12765 47047 ft 449 kts 296°
2026-05-06 14:52 42.12497 27.05203 47043 ft 449 kts 297°
2026-05-06 14:52 42.15216 26.97638 47048 ft 449 kts 296°
2026-05-06 14:53 42.17945 26.90042 47036 ft 447 kts 296°
2026-05-06 14:53 42.20635 26.82526 47032 ft 448 kts 296°
2026-05-06 14:54 42.23340 26.74946 47031 ft 448 kts 296°
2026-05-06 14:54 42.26042 26.67359 47031 ft 448 kts 296°
2026-05-06 14:55 42.28724 26.59804 47017 ft 447 kts 296°
2026-05-06 14:55 42.31414 26.52210 47014 ft 447 kts 296°
2026-05-06 14:56 42.34093 26.44621 47018 ft 447 kts 296°
2026-05-06 14:56 42.36754 26.37065 47025 ft 447 kts 296°
2026-05-06 14:57 42.39433 26.29438 47020 ft 450 kts 296°
2026-05-06 14:57 42.42112 26.21790 46999 ft 449 kts 296°
2026-05-06 14:58 42.44785 26.14137 47000 ft 449 kts 296°
2026-05-06 14:58 42.47436 26.06527 46994 ft 449 kts 296°
2026-05-06 14:59 42.50099 25.98860 47000 ft 449 kts 296°
2026-05-06 14:59 42.52758 25.91187 46997 ft 449 kts 296°
2026-05-06 15:00 42.55393 25.83562 46999 ft 449 kts 296°
2026-05-06 15:00 42.58041 25.75874 46997 ft 448 kts 295°
2026-05-06 15:01 42.60679 25.68197 46996 ft 448 kts 295°
2026-05-06 15:01 42.63297 25.60558 46999 ft 448 kts 295°
2026-05-06 15:02 42.65922 25.52875 46998 ft 447 kts 295°
2026-05-06 15:02 42.68538 25.45198 47004 ft 447 kts 295°
2026-05-06 15:03 42.71139 25.37541 47001 ft 447 kts 295°
2026-05-06 15:03 42.73744 25.29856 46999 ft 447 kts 295°
2026-05-06 15:04 42.76341 25.22168 46995 ft 447 kts 295°
2026-05-06 15:04 42.78912 25.14538 46997 ft 447 kts 295°
2026-05-06 15:05 42.81503 25.06825 46999 ft 447 kts 295°
2026-05-06 15:05 42.84085 24.99119 46995 ft 447 kts 295°
2026-05-06 15:06 42.86660 24.91408 46993 ft 447 kts 295°
2026-05-06 15:06 42.89235 24.83680 46992 ft 446 kts 295°
2026-05-06 15:07 42.91787 24.75999 46991 ft 446 kts 295°
2026-05-06 15:07 42.94348 24.68265 46988 ft 447 kts 295°
2026-05-06 15:08 42.96904 24.60528 46988 ft 446 kts 294°
2026-05-06 15:08 42.99459 24.52770 46977 ft 448 kts 294°
2026-05-06 15:09 43.01994 24.45050 46981 ft 448 kts 294°
2026-05-06 15:09 43.04540 24.37275 46978 ft 448 kts 294°
2026-05-06 15:10 43.07087 24.29472 46982 ft 448 kts 294°
2026-05-06 15:10 43.09675 24.21734 46959 ft 446 kts 298°
2026-05-06 15:11 43.12962 24.14564 46987 ft 447 kts 302°
2026-05-06 15:11 43.16258 24.07355 46985 ft 446 kts 302°
2026-05-06 15:12 43.19574 24.00128 46963 ft 447 kts 302°
2026-05-06 15:12 43.22848 23.92962 46968 ft 445 kts 301°
2026-05-06 15:13 43.26137 23.85745 46964 ft 446 kts 301°
2026-05-06 15:13 43.28585 23.77949 46951 ft 446 kts 284°
2026-05-06 15:14 43.29462 23.69565 46976 ft 447 kts 277°
2026-05-06 15:14 43.30223 23.61142 46969 ft 442 kts 277°
2026-05-06 15:15 43.30964 23.52731 46968 ft 443 kts 277°
2026-05-06 15:15 43.31704 23.44310 46968 ft 444 kts 277°
2026-05-06 15:16 43.32435 23.35904 46960 ft 444 kts 277°
2026-05-06 15:16 43.33151 23.27601 46965 ft 438 kts 277°
2026-05-06 15:17 43.33870 23.19260 46968 ft 440 kts 277°
2026-05-06 15:17 43.34461 23.12313 46959 ft 440 kts 277°
2026-05-06 15:18 43.35167 23.03964 46957 ft 440 kts 277°
2026-05-06 15:18 43.35867 22.95614 46962 ft 440 kts 276°
2026-05-06 15:19 43.36560 22.87269 46969 ft 440 kts 276°
2026-05-06 15:19 43.37254 22.78913 46961 ft 439 kts 277°
2026-05-06 15:20 43.38878 22.70847 46966 ft 441 kts 288°
2026-05-06 15:20 43.40821 22.62851 46970 ft 441 kts 287°
2026-05-06 15:21 43.42759 22.54831 46967 ft 441 kts 288°
2026-05-06 15:21 43.44695 22.46823 46964 ft 441 kts 287°
2026-05-06 15:22 43.46609 22.38850 46952 ft 441 kts 287°
2026-05-06 15:22 43.48534 22.30821 46948 ft 441 kts 287°
2026-05-06 15:23 43.50454 22.22774 46945 ft 442 kts 287°
2026-05-06 15:23 43.52370 22.14719 46938 ft 442 kts 287°
2026-05-06 15:24 43.54266 22.06719 46948 ft 442 kts 287°
2026-05-06 15:24 43.56171 21.98655 46940 ft 442 kts 287°
2026-05-06 15:25 43.58069 21.90587 46940 ft 442 kts 287°
2026-05-06 15:25 43.59963 21.82507 46942 ft 442 kts 287°
2026-05-06 15:26 43.61840 21.74471 46930 ft 442 kts 287°
2026-05-06 15:26 43.63722 21.66387 46944 ft 442 kts 287°
2026-05-06 15:27 43.65601 21.58283 46943 ft 443 kts 287°
2026-05-06 15:27 43.67463 21.50227 46932 ft 443 kts 287°
2026-05-06 15:28 43.69332 21.42103 46934 ft 443 kts 287°
2026-05-06 15:28 43.71197 21.33974 46932 ft 443 kts 287°
2026-05-06 15:29 43.73043 21.25894 46927 ft 442 kts 287°
2026-05-06 15:29 43.74892 21.17770 46918 ft 442 kts 287°
2026-05-06 15:30 43.76736 21.09643 46923 ft 442 kts 287°
2026-05-06 15:30 43.78558 21.01578 46916 ft 442 kts 286°
2026-05-06 15:31 43.80388 20.93447 46928 ft 441 kts 286°
2026-05-06 15:31 43.82211 20.85321 46923 ft 441 kts 286°
2026-05-06 15:32 43.84931 20.73134 46928 ft 441 kts 286°
2026-05-06 15:32 43.86729 20.65043 46930 ft 441 kts 286°
2026-05-06 15:33 43.88526 20.56923 46944 ft 439 kts 286°
2026-05-06 15:33 43.90318 20.48796 46946 ft 441 kts 286°
2026-05-06 15:34 43.91914 20.40579 46939 ft 441 kts 283°
2026-05-06 15:34 43.93413 20.32376 46935 ft 441 kts 283°
2026-05-06 15:35 43.94921 20.24124 46934 ft 439 kts 283°
2026-05-06 15:35 43.96415 20.15877 46923 ft 440 kts 283°
2026-05-06 15:36 43.97900 20.07669 46924 ft 440 kts 283°
2026-05-06 15:36 43.99383 19.99419 46924 ft 440 kts 283°
2026-05-06 15:37 44.00861 19.91169 46938 ft 438 kts 283°
2026-05-06 15:37 44.02312 19.83027 46935 ft 437 kts 282°
2026-05-06 15:38 44.03768 19.74821 46939 ft 437 kts 282°
2026-05-06 15:38 44.05218 19.66612 46936 ft 436 kts 282°
2026-05-06 15:39 44.06665 19.58388 46940 ft 437 kts 282°
2026-05-06 15:39 44.08095 19.50216 46932 ft 437 kts 282°
2026-05-06 15:40 44.09530 19.41984 46934 ft 437 kts 282°
2026-05-06 15:40 44.10964 19.33716 46937 ft 439 kts 282°
2026-05-06 15:41 44.12377 19.25532 46942 ft 437 kts 282°
2026-05-06 15:41 44.13791 19.17300 46936 ft 438 kts 282°
2026-05-06 15:42 44.15202 19.09054 46934 ft 438 kts 282°
2026-05-06 15:42 44.16609 19.00790 46940 ft 437 kts 282°
2026-05-06 15:43 44.18001 18.92579 46938 ft 438 kts 282°
2026-05-06 15:43 44.19395 18.84309 46926 ft 436 kts 282°
2026-05-06 15:44 44.20771 18.76111 46947 ft 438 kts 282°
2026-05-06 15:44 44.22150 18.67862 46931 ft 436 kts 282°
2026-05-06 15:45 44.23521 18.59612 46942 ft 438 kts 282°
2026-05-06 15:45 44.24889 18.51350 46941 ft 437 kts 281°
2026-05-06 15:46 44.26249 18.43084 46942 ft 436 kts 281°
2026-05-06 15:46 44.27596 18.34864 46938 ft 437 kts 281°
2026-05-06 15:47 44.28943 18.26607 46940 ft 436 kts 281°
2026-05-06 15:47 44.30356 18.18369 46930 ft 435 kts 284°
2026-05-06 15:48 44.32043 18.10254 46940 ft 434 kts 284°
2026-05-06 15:48 44.33695 18.02117 46930 ft 438 kts 284°
2026-05-06 15:49 44.35368 17.93936 46924 ft 437 kts 284°
2026-05-06 15:49 44.37024 17.85754 46923 ft 437 kts 284°
2026-05-06 15:50 44.38663 17.77655 46919 ft 433 kts 283°
2026-05-06 15:50 44.40297 17.69517 46919 ft 434 kts 283°
2026-05-06 15:51 44.41924 17.61408 46936 ft 434 kts 283°
2026-05-06 15:51 44.43551 17.53250 46933 ft 435 kts 283°
2026-05-06 15:52 44.45168 17.45117 46935 ft 432 kts 283°
2026-05-06 15:52 44.46764 17.37050 46941 ft 433 kts 283°
2026-05-06 15:53 44.48371 17.28899 46946 ft 434 kts 283°
2026-05-06 15:53 44.49970 17.20758 46942 ft 433 kts 283°
2026-05-06 15:54 44.51561 17.12617 46939 ft 434 kts 283°
2026-05-06 15:54 44.53146 17.04474 46934 ft 433 kts 283°
2026-05-06 15:55 44.54718 16.96362 46949 ft 433 kts 282°
2026-05-06 15:55 44.56292 16.88209 46950 ft 433 kts 282°
2026-05-06 15:56 44.57862 16.80039 46942 ft 433 kts 282°
2026-05-06 15:56 44.59425 16.71872 46954 ft 438 kts 283°
2026-05-06 15:57 44.60998 16.63625 46950 ft 436 kts 282°
2026-05-06 15:57 44.62562 16.55372 46948 ft 437 kts 282°
2026-05-06 15:58 44.64113 16.47173 46945 ft 436 kts 282°
2026-05-06 15:58 44.65665 16.38917 46963 ft 438 kts 282°
2026-05-06 15:59 44.67217 16.30635 46969 ft 437 kts 282°
2026-05-06 15:59 44.68758 16.22368 46964 ft 437 kts 282°
2026-05-06 16:00 44.70292 16.14104 46962 ft 437 kts 282°
2026-05-06 16:00 44.71813 16.05877 46956 ft 437 kts 282°
2026-05-06 16:01 44.73338 15.97589 46950 ft 437 kts 282°
2026-05-06 16:01 44.74854 15.89313 46954 ft 437 kts 282°
2026-05-06 16:02 44.76355 15.81081 46956 ft 437 kts 282°
2026-05-06 16:02 44.77498 15.72691 46986 ft 435 kts 275°
2026-05-06 16:03 44.78276 15.64213 46963 ft 435 kts 276°
2026-05-06 16:03 44.79041 15.55796 46965 ft 435 kts 275°
2026-05-06 16:04 44.79669 15.48762 46966 ft 436 kts 275°
2026-05-06 16:04 44.80433 15.40273 46976 ft 436 kts 275°
2026-05-06 16:05 44.81180 15.31786 46970 ft 437 kts 275°
2026-05-06 16:05 44.81924 15.23334 46970 ft 436 kts 275°
2026-05-06 16:06 44.82662 15.14831 46972 ft 437 kts 275°
2026-05-06 16:06 44.83392 15.06382 46973 ft 436 kts 275°
2026-05-06 16:07 44.83755 15.02144 46787 ft 434 kts 275°
2026-05-06 16:07 44.84114 14.97932 46196 ft 432 kts 275°
2026-05-06 16:07 44.84470 14.93734 45622 ft 429 kts 275°
2026-05-06 16:07 44.84822 14.89577 45051 ft 426 kts 275°
2026-05-06 16:08 44.85170 14.85438 44470 ft 423 kts 275°
2026-05-06 16:08 44.85515 14.81328 43905 ft 420 kts 275°
2026-05-06 16:08 44.85855 14.77239 43351 ft 420 kts 274°
2026-05-06 16:08 44.86192 14.73181 42811 ft 422 kts 274°
2026-05-06 16:09 44.86533 14.69065 42249 ft 423 kts 274°
2026-05-06 16:09 44.86872 14.64952 41692 ft 423 kts 274°
2026-05-06 16:09 44.87209 14.60838 41135 ft 422 kts 274°
2026-05-06 16:09 44.87544 14.56722 40577 ft 423 kts 274°
2026-05-06 16:10 44.87879 14.52598 40020 ft 422 kts 273°
2026-05-06 16:10 44.88213 14.48477 39464 ft 421 kts 273°
2026-05-06 16:10 44.88543 14.44375 38908 ft 420 kts 273°
2026-05-06 16:10 44.88870 14.40285 38299 ft 419 kts 273°
2026-05-06 16:11 44.89192 14.36250 37754 ft 418 kts 273°
2026-05-06 16:11 44.89516 14.32162 37205 ft 419 kts 273°
2026-05-06 16:11 44.89839 14.28068 36649 ft 418 kts 273°
2026-05-06 16:11 44.90161 14.23978 36096 ft 419 kts 273°
2026-05-06 16:12 44.90482 14.19887 35544 ft 420 kts 272°
2026-05-06 16:12 44.90796 14.15854 34996 ft 419 kts 272°
2026-05-06 16:12 44.91113 14.11767 34446 ft 419 kts 272°
2026-05-06 16:12 44.91429 14.07676 33882 ft 418 kts 272°
2026-05-06 16:13 44.91743 14.03589 33281 ft 418 kts 272°
2026-05-06 16:13 44.92055 13.99503 32729 ft 418 kts 272°
2026-05-06 16:13 44.92366 13.95418 32177 ft 418 kts 272°
2026-05-06 16:13 44.92676 13.91336 31622 ft 418 kts 272°
2026-05-06 16:14 44.92979 13.87304 31076 ft 418 kts 272°
2026-05-06 16:14 44.93285 13.83222 30528 ft 419 kts 271°
2026-05-06 16:14 44.93589 13.79174 29966 ft 411 kts 271°
2026-05-06 16:14 44.93887 13.75180 29397 ft 408 kts 271°
2026-05-06 16:15 44.94179 13.71196 28859 ft 407 kts 271°
2026-05-06 16:15 44.94469 13.67233 28320 ft 406 kts 271°
2026-05-06 16:15 44.94760 13.63283 27788 ft 404 kts 271°
2026-05-06 16:15 44.95048 13.59337 27257 ft 403 kts 271°
2026-05-06 16:16 44.95332 13.55407 26726 ft 402 kts 271°
2026-05-06 16:16 44.95614 13.51496 26350 ft 399 kts 271°
2026-05-06 16:16 44.95896 13.47561 25660 ft 399 kts 271°
2026-05-06 16:16 44.96176 13.43655 25133 ft 400 kts 271°
2026-05-06 16:17 44.96454 13.39764 24919 ft 396 kts 271°
2026-05-06 16:17 44.96728 13.35872 24925 ft 398 kts 271°
2026-05-06 16:17 44.97002 13.31979 24921 ft 399 kts 271°
2026-05-06 16:17 44.97276 13.28072 24923 ft 399 kts 271°
2026-05-06 16:18 44.97549 13.24168 24906 ft 400 kts 271°
2026-05-06 16:18 44.97817 13.20301 24803 ft 403 kts 271°
2026-05-06 16:18 44.98087 13.16380 24347 ft 399 kts 271°
2026-05-06 16:18 44.98357 13.12474 23902 ft 399 kts 271°
2026-05-06 16:19 44.98746 13.08591 23431 ft 403 kts 279°
2026-05-06 16:19 44.99649 13.04831 22895 ft 402 kts 285°
2026-05-06 16:19 45.00591 13.01117 22392 ft 399 kts 285°
2026-05-06 16:19 45.01495 12.97420 21892 ft 396 kts 284°
2026-05-06 16:20 45.02377 12.93798 21398 ft 393 kts 284°
2026-05-06 16:20 45.03278 12.90157 20917 ft 390 kts 285°
2026-05-06 16:20 45.04174 12.86547 20440 ft 387 kts 285°
2026-05-06 16:20 45.05055 12.82958 19978 ft 385 kts 284°
2026-05-06 16:21 45.05930 12.79382 19507 ft 383 kts 284°
2026-05-06 16:21 45.06802 12.75826 19020 ft 381 kts 285°
2026-05-06 16:21 45.07665 12.72304 18517 ft 376 kts 284°
2026-05-06 16:21 45.08509 12.68851 17984 ft 374 kts 284°
2026-05-06 16:22 45.09354 12.65382 17396 ft 371 kts 284°
2026-05-06 16:22 45.10195 12.61929 16819 ft 367 kts 284°
2026-05-06 16:22 45.11007 12.58612 16249 ft 345 kts 284°
2026-05-06 16:22 45.11771 12.55476 15683 ft 330 kts 284°
2026-05-06 16:23 45.12506 12.52416 15125 ft 325 kts 284°
2026-05-06 16:23 45.13227 12.49437 14591 ft 323 kts 284°
2026-05-06 16:23 45.14037 12.46466 13955 ft 323 kts 285°
2026-05-06 16:23 45.14805 12.43497 13274 ft 319 kts 284°
2026-05-06 16:24 45.15553 12.40561 12567 ft 314 kts 285°
2026-05-06 16:24 45.16316 12.37669 11889 ft 310 kts 285°
2026-05-06 16:24 45.17071 12.34824 11214 ft 306 kts 285°
2026-05-06 16:24 45.17806 12.32015 10749 ft 298 kts 285°
2026-05-06 16:25 45.18519 12.29276 10544 ft 301 kts 285°
2026-05-06 16:25 45.19185 12.26464 10269 ft 298 kts 278°
2026-05-06 16:25 45.19254 12.23644 10003 ft 275 kts 262°
2026-05-06 16:25 45.19097 12.20976 9790 ft 269 kts 262°
2026-05-06 16:26 45.18958 12.18332 9536 ft 268 kts 262°
2026-05-06 16:26 45.18823 12.15712 9300 ft 262 kts 262°
2026-05-06 16:26 45.18932 12.13210 8942 ft 257 kts 282°
2026-05-06 16:26 45.19961 12.11130 8722 ft 257 kts 310°
2026-05-06 16:27 45.21310 12.09447 8628 ft 267 kts 314°
2026-05-06 16:27 45.22721 12.07734 8151 ft 264 kts 314°
2026-05-06 16:27 45.24102 12.06052 7659 ft 259 kts 314°
2026-05-06 16:27 45.25471 12.04368 6998 ft 261 kts 314°
2026-05-06 16:28 45.26840 12.02664 6340 ft 263 kts 314°
2026-05-06 16:28 45.28219 12.00945 5632 ft 264 kts 314°
2026-05-06 16:28 45.29595 11.99209 4934 ft 264 kts 314°
2026-05-06 16:28 45.31216 11.97981 4098 ft 267 kts 345°
2026-05-06 16:29 45.32940 11.98215 3227 ft 245 kts 23°
2026-05-06 16:29 45.34102 11.99849 2813 ft 232 kts 65°
2026-05-06 16:29 45.34623 12.01952 2993 ft 228 kts 75°
2026-05-06 16:29 45.34994 12.04217 2997 ft 236 kts 80°
2026-05-06 16:30 45.35295 12.06504 2990 ft 236 kts 81°
2026-05-06 16:30 45.35495 12.08039 2984 ft 237 kts 82°
2026-05-06 16:30 45.35928 12.11210 2982 ft 241 kts 82°
2026-05-06 16:30 45.36254 12.13532 2974 ft 242 kts 80°
2026-05-06 16:31 45.36589 12.15878 2979 ft 243 kts 79°
2026-05-06 16:31 45.37034 12.18205 2940 ft 246 kts 69°
2026-05-06 16:31 45.38171 12.19991 2886 ft 248 kts 33°
2026-05-06 16:31 45.39633 12.21237 2589 ft 236 kts 37°
2026-05-06 16:32 45.40879 12.22783 2285 ft 235 kts 45°
2026-05-06 16:32 45.42014 12.24291 1982 ft 220 kts 44°
2026-05-06 16:32 45.43086 12.25646 1657 ft 182 kts 43°
2026-05-06 16:32 45.43945 12.26738 1332 ft 156 kts 44°
2026-05-06 16:33 45.44711 12.27730 1184 ft 141 kts 46°
2026-05-06 16:33 45.45418 12.28636 1074 ft 134 kts 44°
2026-05-06 16:33 45.46124 12.29545 906 ft 138 kts 44°
2026-05-06 16:34 45.47511 12.31329 551 ft 129 kts 44°
2026-05-06 16:34 45.48171 12.32177 375 ft 125 kts 44°
2026-05-06 16:34 45.48804 12.32999 198 ft 121 kts 43°
2026-05-06 16:34 45.49430 12.33795 68 ft 120 kts 44°
2026-05-06 16:35 45.50043 12.34582 13 ft 113 kts 44°
2026-05-06 16:35 45.50528 12.35207 11 ft 69 kts 42°
2026-05-06 16:35 45.50721 12.35398 13 ft 17 kts 355°
2026-05-06 16:35 45.50800 12.35391 13 ft 6 kts 350°
2026-05-06 16:36 45.50814 12.35386 13 ft 2 kts 344°
2026-05-06 16:36 45.50828 12.35381 13 ft 2 kts 343°
2026-05-06 16:36 45.50853 12.35368 13 ft 0 kts 336°
2026-05-06 16:36 45.50871 12.35356 13 ft 6 kts 341°
2026-05-06 16:37 45.50940 12.35325 14 ft 11 kts 340°
2026-05-06 16:37 45.50964 12.35255 13 ft 9 kts 257°
2026-05-06 16:37 45.50932 12.35173 13 ft 8 kts 222°
2026-05-06 16:37 45.50890 12.35121 13 ft 9 kts 222°
2026-05-06 16:38 45.50833 12.35048 13 ft 9 kts 222°
2026-05-06 16:38 45.50780 12.34979 12 ft 12 kts 221°
2026-05-06 16:38 45.50712 12.34893 12 ft 14 kts 222°
2026-05-06 16:38 45.50636 12.34795 12 ft 13 kts 225°
2026-05-06 16:39 45.50656 12.34698 12 ft 13 kts 312°
2026-05-06 16:39 45.50702 12.34638 12 ft 1 kts 358°
2026-05-06 16:39 45.50729 12.34672 12 ft 6 kts 43°
2026-05-06 16:39 45.50732 12.34675 12 ft 0 kts 42°